Location: Cedar Brake
(32.2526°N, 97.8459°W)
Time: 08:04:42
(UTC+00:00)

Cosmos 1151 Rocket - Pass Details

Date: 22 April 2026
Orbit: 585 x 605 km, 82.5° (Epoch: 15 May)

Event Time Altitude Azimuth Distance (km) Brightness Sun altitude
Exits shadow 10:07:45 17° 161° (SSE) 1,483 4.9 -21.5°
Maximum altitude 10:10:41 47° 93° (E) 775 3.8 -21.0°
Drops below altitude 10° 10:14:44 10° 19° (NNE) 1,912 6.2 -20.3°
Sets 10:17:00 0° 14° (NNE) 2,817 7.1 -19.8°
